Location: Izdebno
(52.6670°N, 16.2170°E)
Time: 23:40:56
(UTC+02:00)

S-56A Canister/Altair - Pass Details

Date: 27 April 2024
Orbit: 638 x 2488 km, 38.9° (Epoch: 22 May)

Event Time Altitude Azimuth Distance (km) Brightness Sun altitude
Rises 21:12:06 0° 254° (WSW) 3,600 11.6 -8.1°
Reaches altitude 10° 21:17:25 10° 216° (SW) 3,089 10.6 -8.8°
Maximum altitude 21:18:46 11° 206° (SSW) 3,162 10.6 -8.9°
Drops below altitude 10° 21:20:11 10° 196° (SSW) 3,321 10.6 -9.1°
Enters shadow 21:26:22 - 166° (SSE) 4,639 11.0 -9.8°
Sets 21:27:20 0° 163° (SSE) 4,895 - -9.9°
